Back to catalog

EUTE W3B

AliveCommunicationsHEO
NORAD 37206·PAYLOAD·🇪🇺 EU

Launched Oct 28, 2010 from Guiana Space Centre

Loading…

Next Passes (next 24 hours)

TLE

FreshSource: Space-Track

Epoch: Sep 14, 2026, 11:39 UTC

1 37206U 10056A   26257.48561810  .00012940  00000-0  15427-2 0  9992
2 37206   2.5030   0.1821 6880149 163.2164 242.7809  2.81890343144684

Track EUTE W3B in real time with AllMySat

Download on the App Store